EW3811 Weather Reports


Display with metric or nautical units.
time (UTC)temp
F
wind
direction
speed
MPH
gust
MPH
rain 1hr
in
rain 24hr
in
rain mn
in
humidity
%
barometer
mb
20171215062502 7 348 0.0 5.0 0.00 0.00 0.00 54 1015.8
20171215060945 5 302 0.0 2.0 0.00 0.00 0.00 56 1015.2
20171215055450 7 300 0.0 2.0 0.00 0.00 0.00 53 1015.3
20171215054044 6 15 0.0 2.0 0.00 0.00 0.00 53 1015.2
20171215052432 7 292 0.0 4.0 0.00 0.00 0.00 53 1015.0
20171215050946 6 285 0.0 2.0 0.00 0.00 0.00 54 1014.9
20171215045426 7 343 1.0 5.0 0.00 0.00 0.00 52 1015.0
20171215043925 7 20 1.0 2.0 0.00 0.00 0.00 52 1014.7
20171215042428 8 53 2.0 6.0 0.00 0.00 0.00 51 1014.7
20171215040917 7 271 0.0 5.0 0.00 0.00 0.00 51 1014.9
20171215035411 7 255 0.0 4.0 0.00 0.00 0.00 51 1014.6
20171215033949 8 26 0.0 7.0 0.00 0.00 0.00 48 1014.4
20171215032404 9 260 0.0 7.0 0.00 0.00 0.00 46 1014.3
20171215030933 9 349 3.0 8.0 0.00 0.00 0.00 48 1014.2
20171215025413 7 19 0.0 3.0 0.00 0.00 0.00 47 1013.7
20171215023849 7 352 1.0 5.0 0.00 0.00 0.00 47 1013.4
20171215022409 7 278 0.0 7.0 0.00 0.00 0.00 47 1013.1
20171215020847 7 330 1.0 5.0 0.00 0.00 0.00 48 1012.7
20171215015338 7 345 1.0 3.0 0.00 0.00 0.00 46 1012.4
20171215013834 9 336 0.0 7.0 0.00 0.00 0.00 44 1012.4
20171215012334 8 287 0.0 3.0 0.00 0.00 0.00 44 1012.3
20171215010849 9 295 1.0 6.0 0.00 0.00 0.00 42 1012.4
20171215005319 9 307 0.0 9.0 0.00 0.00 0.00 44 1012.0
20171215003822 9 294 1.0 5.0 0.00 0.00 0.00 45 1011.8
20171215002313 9 273 1.0 5.0 0.00 0.00 0.00 45 1011.8
20171215000803 8 290 0.0 2.0 0.00 0.00 0.00 46 1011.4
20171214235306 8 352 1.0 3.0 0.00 0.00 0.00 47 1011.4
20171214233753 8 245 1.0 8.0 0.00 0.00 0.00 47 1011.2
20171214232251 8 302 1.0 5.0 0.00 0.00 0.00 47 1010.6
20171214230752 9 256 0.0 4.0 0.00 0.00 0.00 46 1010.4
20171214225238 8 267 0.0 2.0 0.00 0.00 0.00 51 1009.8
20171214223733 9 323 0.0 4.0 0.00 0.00 0.00 46 1009.5
20171214222232 10 279 0.0 2.0 0.00 0.00 0.00 42 1009.2
20171214220724 10 16 0.0 10.0 0.00 0.00 0.00 44 1009.1
20171214215221 10 247 1.0 7.0 0.00 0.00 0.00 46 1008.9
20171214213717 10 31 2.0 4.0 0.00 0.00 0.00 47 1008.4
20171214212239 11 326 2.0 9.0 0.00 0.00 0.00 43 1008.0
20171214210706 11 10 0.0 2.0 0.00 0.00 0.00 44 1007.9
20171214205237 11 109 0.0 1.0 0.00 0.00 0.00 48 1007.5
20171214203701 13 229 0.0 7.0 0.00 0.00 0.00 38 1007.2
20171214202153 13 262 0.0 6.0 0.00 0.00 0.00 39 1007.1
20171214200700 15 98 1.0 9.0 0.00 0.00 0.00 36 1007.1
20171214195148 15 291 1.0 7.0 0.00 0.00 0.00 35 1006.9
20171214193740 15 55 1.0 9.0 0.00 0.00 0.00 36 1006.4
20171214192133 16 259 1.0 6.0 0.00 0.00 0.00 37 1006.3
20171214190629 16 173 2.0 10.0 0.00 0.00 0.00 37 1006.2
20171214185136 16 101 0.0 12.0 0.00 0.00 0.00 38 1005.9
20171214183630 17 185 2.0 8.0 0.00 0.00 0.00 38 1005.4
20171214182117 17 246 1.0 7.0 0.00 0.00 0.00 39 1005.1
20171214180617 17 125 1.0 5.0 0.00 0.00 0.00 40 1005.0
20171214175128 17 271 0.0 7.0 0.00 0.00 0.00 42 1004.8
20171214173609 17 210 2.0 11.0 0.00 0.00 0.00 40 1004.8
20171214172123 17 324 2.0 7.0 0.00 0.00 0.00 37 1004.2
20171214170555 18 214 1.0 10.0 0.00 0.00 0.00 34 1004.3
20171214165050 17 257 3.0 8.0 0.00 0.00 0.00 36 1004.0
20171214163558 16 324 2.0 8.0 0.00 0.00 0.00 36 1003.9
20171214162040 16 240 3.0 12.0 0.00 0.00 0.00 37 1003.9
20171214160534 14 33 2.0 15.0 0.00 0.00 0.00 39 1003.9
20171214155047 15 280 3.0 11.0 0.00 0.00 0.00 39 1003.8
20171214153525 16 298 4.0 15.0 0.00 0.00 0.00 37 1003.9
20171214152028 17 311 4.0 11.0 0.00 0.00 0.00 35 1003.9
20171214150525 16 26 2.0 9.0 0.00 0.00 0.00 37 1004.0
20171214145016 15 117 2.0 9.0 0.00 0.00 0.00 39 1003.6
20171214143525 14 283 2.0 8.0 0.00 0.00 0.00 40 1003.6
20171214142002 14 219 2.0 6.0 0.00 0.00 0.00 43 1003.6
20171214140537 13 302 0.0 3.0 0.00 0.00 0.00 47 1003.3
20171214135013 12 183 1.0 6.0 0.00 0.00 0.00 48 1003.3
20171214133507 12 241 3.0 10.0 0.00 0.00 0.00 50 1003.3
20171214131944 12 236 4.0 9.0 0.00 0.00 0.00 51 1003.2
20171214130451 12 291 1.0 6.0 0.00 0.00 0.00 52 1003.0
20171214124943 12 229 0.0 4.0 0.00 0.00 0.00 50 1003.0
20171214123429 11 110 0.0 5.0 0.00 0.00 0.00 51 1003.0
20171214121933 12 190 2.0 9.0 0.00 0.00 0.00 47 1002.8
20171214120422 12 311 0.0 3.0 0.00 0.00 0.00 50 1002.5
20171214114928 13 23 0.0 15.0 0.00 0.00 0.00 45 1002.2
20171214113415 12 148 1.0 9.0 0.00 0.00 0.00 47 1002.0
20171214111937 10 295 0.0 3.0 0.00 0.00 0.00 53 1002.0
20171214110411 8 333 0.0 2.0 0.00 0.00 0.00 62 1002.1
20171214104909 7 288 0.0 1.0 0.00 0.00 0.00 64 1001.7
20171214103359 7 293 0.0 0.0 0.00 0.00 0.00 62 1001.6
20171214101849 7 297 0.0 1.0 0.00 0.00 0.00 62 1001.4
20171214100410 7 311 0.0 1.0 0.00 0.00 0.00 62 1001.3
20171214094846 8 285 0.0 1.0 0.00 0.00 0.00 62 1001.3
20171214093350 8 293 1.0 3.0 0.00 0.00 0.00 65 1001.1
20171214091831 8 331 0.0 1.0 0.00 0.00 0.00 65 1001.0
20171214090331 7 75 0.0 1.0 0.00 0.00 0.00 64 1000.8
20171214084831 7 305 0.0 3.0 0.00 0.00 0.00 65 1001.1
20171214083325 7 302 0.0 1.0 0.00 0.00 0.00 66 1000.9
20171214081813 7 337 0.0 2.0 0.00 0.00 0.00 67 1000.5
20171214080322 7 113 0.0 1.0 0.00 0.00 0.00 66 1000.3
20171214074806 8 347 0.0 3.0 0.00 0.00 0.00 63 1000.2
20171214073304 6 30 0.0 1.0 0.00 0.00 0.00 67 999.9
20171214071815 6 35 0.0 1.0 0.00 0.00 0.00 68 1000.2
20171214070302 7 281 0.0 1.0 0.00 0.00 0.00 67 1000.4
20171214064753 7 229 0.0 2.0 0.00 0.00 0.00 67 1000.3